Home > Weather > Annapolis County > Past weeks

Flag for Canada Past Weather in Annapolis County, Nova Scotia, Canada — Yesterday and Last 2 Weeks

Now
87 °F

Pleasantly warm.


Feels Like: 86 °F
Forecast: 61 / 77 °F
Wind: 5 mph from Southwest

Location: Kejimkujik 1

Current Time: Jul 25, 2016 at 3:01:46 PM

Latest Report: Jul 25, 2016 at 2:00 PM


Visibility: N/A

Pressure: 29.90 "Hg

Humidity: 36%

Dew Point: 57 °F

Location of Annapolis CountyLocation

Past Weather in Annapolis County — Graph

°F

Annapolis County Temperature Yesterday

Maximum temperature yesterday: 86 °F (at 4:00 PM)
Minimum temperature yesterday: 61 °F (at 7:00 AM)
Average temperature yesterday: 73 °F

High & Low Weather Summary for the Past Weeks

 TemperatureHumidityPressure
High90 °F (Jul 16, 3:00 PM)100% (Jul 10, 8:00 PM)30.17 "Hg (Jul 10, 8:00 PM)
Low50 °F (Jul 20, 5:00 AM)30% (Jul 16, 4:00 PM)29.67 "Hg (Jul 23, 5:00 PM)
Average69 °F74%29.93 "Hg
* Reported Jul 10 2:00 PM — Jul 25 2:00 PM, Annapolis County, Weather by CustomWeather, © 2016

Note: Actual official high and low records may vary slightly from our data, if they occured in-between our weather recording intervals... More about our weather records

Advertising

Annapolis County Weather History for the Previous 24 Hours

Scroll right to see more
 ConditionsComfort  
Time TempWeatherWind HumidityBarometerVisibility
2:00 PM
Mon, Jul 25
87 °FPleasantly warm.5 mph36%29.90 "HgN/A
1:00 PM86 °FPleasantly warm.5 mph38%29.91 "HgN/A
12:00 PM84 °FWarm.6 mph44%29.92 "HgN/A
11:00 AM82 °FWarm.3 mph48%29.92 "HgN/A
10:00 AM78 °FWarm.1 mph63%29.93 "HgN/A
9:00 AM69 °FMild.1 mph81%29.93 "HgN/A
8:00 AM65 °FMild.2 mph84%29.93 "HgN/A
7:00 AM61 °FCool.2 mph90%29.91 "HgN/A
6:00 AM60 °FCool.2 mph91%29.91 "HgN/A
5:00 AM61 °FCool.2 mph89%29.90 "HgN/A
4:00 AM62 °FMild.2 mph89%29.90 "HgN/A
3:00 AM63 °FMild.1 mph88%29.90 "HgN/A
2:00 AM64 °FMild.2 mph85%29.91 "HgN/A
1:00 AM64 °FMild.3 mph91%29.91 "HgN/A
12:00 AM67 °FMild.1 mph83%29.91 "HgN/A
11:00 PM
Sun, Jul 24
69 °FMild.3 mph79%29.90 "HgN/A
10:00 PM69 °FMild.2 mph77%29.90 "HgN/A
9:00 PM72 °FMild.2 mph68%29.88 "HgN/A
8:00 PM79 °FWarm.2 mph55%29.86 "HgN/A
7:00 PM82 °FWarm.5 mph47%29.85 "HgN/A
6:00 PM84 °FWarm.5 mph44%29.84 "HgN/A
5:00 PM85 °FWarm.5 mph40%29.81 "HgN/A
4:00 PM86 °FWarm.5 mph42%29.81 "HgN/A
3:00 PM84 °FWarm.2 mph45%29.80 "HgN/A
Weather by CustomWeather, © 2016

See weather overviewHow to use our weather pages